Погода в Токарево

Россия / Алтайский край     52°03′50″N   81°13′15″E
темп.,
°C
ветер,
м/с
пор.,
м/с
влажн.,
%
обл.,
%
осадки,
мм/ч
давл.,
гПа
погр.,
м
21 января, чт
чт2101:00−6ююз51295100 0.8 1020446
04:00−5юз51095100 0.4 1020340
07:00−6юз4895100 0.4 1021271
10:00−8юз3896100 0.0 1021249
13:00−6зюз3691100 0.0 1020387
16:00−6зюз129499 0.1 1018172
19:00−8св1296100 0.3 101621
22:00−7всв2397100 0.8 1014119
22 января, пт
пт2201:00−7св2396100 2.5 1011108
04:00−8с4596100 1.9 1009160
07:00−11сз5795100 4.7 1009261
10:00−13сз4795100 0.6 1012291
13:00−14сз4694100 0.6 1014308
16:00−14сз3594100 0.5 1016324
19:00−17сз3695100 1.0 1019307
22:00−18з4794100 0.1 1023312
23 января, сб
сб2301:00−24юз4698100 0.1 1027119
04:00−25юз5119719 0.0 1030205
07:00−21ююз5119559 0.1 1030352
10:00−19ююз61195100 0.1 1031418
13:00−16ююз61092100 0.1 1031587
16:00−14юз6991100 0.1 1031725
19:00−15ююз4896100 0.4 1031355
22:00−15ююз4896100 0.3 1033234
24 января, вс
вс2401:00−15юз3796100 0.6 1033251
04:00−16зюз3697100 0.3 1034178
07:00−19зсз3698100 0.5 1035182
10:00−23зсз4797100 0.2 1039252
13:00−26зсз4696100 0.2 1041305
16:00−27з3594100 0.0 1044315
19:00−30з2395100 0.0 104657
22:00−30зюз2295100 0.0 104767
25 января, пн
пн2501:00−31юз239694 0.0 104720
04:00−33ююз239435 0.0 104719
07:00−32ю339745 0.0 104538
10:00−28ююв3795100 0.0 1043173
13:00−23ю5893100 0.0 1039290
16:00−18ююв5896100 0.3 1035400
19:00−16ююв4996100 1.3 1033525
22:00−17в3497100 1.0 1032108